Regional Weather Roundup
Issued by NWS

Home | Current Version | Previous Version | Text Only | Print | Product List | Glossary On
Versions: 1 2 3 4 5 6 7 8 9 10 11 12 13 14 15 16 17 18 19 20 21 22 23 24 25 26 27 28 29 30 31 32 33 34 35 36 37 38 39 40 41 42 43 44 45 46 47 48 49 50
000
ASUS44 KFWD 060915
RWRTX
NORTH TEXAS HOURLY WEATHER ROUNDUP
NATIONAL WEATHER SERVICE FORT WORTH TX
400 AM CDT WED MAY 06 2015

NOTE: "FAIR" INDICATES FEW OR NO CLOUDS BELOW 12,000 FEET WITH NO
SIGNIFICANT WEATHER AND/OR OBSTRUCTIONS TO VISIBILITY.

TXZ118-119-061000-
DALLAS/FORT WORTH METROPLEX

CITY           SKY/WX    TMP DP  RH WIND       PRES   REMARKS
DFW AIRPORT    CLOUDY    69  67  93 SE14      29.93S
DALLAS LOVE    MOCLDY    70  66  87 SE15G22   29.95R
FTW MEACHAM    CLOUDY    70  68  93 SE14      29.92F
DAL-EXECUTIVE  CLOUDY    68  66  93 SE8       29.95R
FTW-ALLIANCE   CLOUDY    69  67  93 S15       29.92S
FTW-NAS-JRB    CLOUDY    71  68  90 SE14      29.92F
FTW-SPINKS     CLOUDY    70  67  91 S12       29.95S
ARLINGTON      CLOUDY    70  66  87 SE14      29.94R
GRAND PRAIRIE  PTCLDY    69  69 100 SE9       29.96R
ADDISON        CLOUDY   N/A N/A N/A S13G20    29.97R
MESQUITE       CLOUDY    68  67  94 SE13      29.96F
LANCASTER      RAIN      67  65  91 SE5       29.97S
$$

TXZ091>094-102>105-117-120-121-131>134-061000-
NORTH CENTRAL TEXAS

CITY           SKY/WX    TMP DP  RH WIND       PRES   REMARKS
SHRMAN/DENISON CLOUDY    69  68  98 SE14      29.96R THUNDER
GAINESVILLE    CLOUDY    67  66  95 SE15      29.94F
BOWIE          CLOUDY    67  65  93 SE14G20   29.90S
BRIDGEPORT     PTCLDY    69  67  96 S12G20    29.92F
DECATUR        CLOUDY    68  67  96 S14       29.92S
DENTON         LGT RAIN  68  67  96 SE23G35   29.91F FOG
MCKINNEY       CLOUDY    69  67  93 S17       29.95R
GREENVILLE     CLOUDY    70  64  83 SE12      29.99S
ROCKWALL       RAIN      68  67  96 SE9       29.96S
TERRELL        CLOUDY    72  65  78 SE10      29.98R
WAXAHACHIE     CLOUDY    68  68 100 SE7G16    29.97S
CLEBURNE       CLOUDY    70  70 100 SE9G15    29.96S
GRANBURY         N/A     70  67  88 SE10G17   29.92F
$$

TXZ083>090-098>101-113>116-127>130-139>142-154-155-061000-
WESTERN NORTH TEXAS

CITY           SKY/WX    TMP DP  RH WIND       PRES   REMARKS
WICHITA FALLS  CLOUDY    67  64  90 S14       29.86F
WF-KICKAPOO    CLOUDY    69  65  86 S14       29.88F
VERNON         CLEAR     65  60  84 S9        29.84S
ABILENE        CLEAR     67  64  90 S14       29.86F
ABILENE-DYESS  CLEAR     66  65  94 S14       29.85F
BRECKENRIDGE   MOCLDY    70  65  84 S12G17    29.88S
GRAHAM         CLOUDY    68  66  92 SE13G20   29.87S
MINERAL WELLS  CLOUDY    68  65  90 SE12      29.90F
STEPHENVILLE   MOCLDY    67  64  90 S12G18    29.94F
COMANCHE       CLOUDY    68  68 100 SE8       29.92F
BROWNWOOD      CLOUDY    68  66  94 SE7       29.91F
COLEMAN        CLOUDY    68  66  94 SE7       29.90F
$$

TXZ143>147-156>162-174-175-061000-
CENTRAL TEXAS

CITY           SKY/WX    TMP DP  RH WIND       PRES   REMARKS
WACO           MOCLDY    69  67  93 SE12      29.93F
WACO-MCGREGOR  PTCLDY    70  63  78 SE14G22   29.95S
HILLSBORO      PTCLDY    69  66  90 SE13G22   29.95S
CORSICANA      LGT RAIN  70  66  87 S14       29.99R
MEXIA          RAIN      68  67  96 SE16      29.97R
HEARNE         LGT RAIN  70  68  94 E7        29.95R
CAMERON        HVY RAIN  69  69  98 CALM      29.92F
TEMPLE         CLOUDY    68  63  83 SE17      29.93F
KILLEEN        CLOUDY    68  67  97 SE12      29.91S
KILLEEN-SKYLRK MOCLDY    68  63  83 E10       29.91F
FORT HOOD      CLOUDY    68  66  94 SE12      29.91F
GATESVILLE     CLOUDY    70  70 100 SE9       29.95S
HAMILTON       CLOUDY    68  68 100 SE9       29.94R
LAMPASAS       CLOUDY    71  70  97 SE6       29.91S
$$

TXZ095>097-106>112-122>126-135>138-148>153-164>167-061000-
EAST TEXAS

CITY           SKY/WX    TMP DP  RH WIND       PRES   REMARKS
PARIS          CLOUDY    68  59  73 MISG      30.02R
SULPHUR SPRNGS DRIZZLE   70  64  81 S9G16     30.03R
MOUNT PLEASANT CLOUDY   N/A N/A N/A SE6       30.03S
GILMER         CLOUDY    68  64  85 SE9       30.01S
MINEOLA        CLOUDY    70  66  88 SE7       30.01R
TYLER          MOCLDY    68  64  87 SE6       30.00R
LONGVIEW       CLOUDY    69  63  81 SE9       30.00F
MARSHALL       PTCLDY    71  65  83 CALM      30.04F
ATHENS         MOCLDY    66  64  94 SE8       29.96F
PALESTINE      MOCLDY    69  66  90 E7        29.99S
JACKSONVILLE   MOCLDY    69  66  91 SE8       30.02S
HENDERSON      MOCLDY    68  64  88 SE8       30.02S
NACOGDOCHES    MOCLDY    68  63  83 SE6       30.00S
LUFKIN         CLOUDY    70  66  87 SE7       29.99S
$$

SUPPLEMENTAL OBSERVATIONS (CENTRAL)

CITY           SKY/WX    TMP DP  RH WIND       PRES   REMARKS
LAKE TEXOMA      N/A     68  64  88 SE12        N/A
CADDO GRASSLND   N/A     68  63  83 S8          N/A
LAKE LIMESTONE   N/A     70  66  88 SE1         N/A
MCGREGOR         N/A     70  66  88 S12         N/A
TEMPLE           N/A     66  63  88 SE9G24      N/A
$$

SUPPLEMENTAL OBSERVATIONS (WEST)

CITY           SKY/WX    TMP DP  RH WIND       PRES   REMARKS
MILLERS CREEK    N/A     66  63  88 S9          N/A
POSSUM KINGDOM   N/A     68  63  83 SE9         N/A
LBJ GRASSLAND    N/A     70  66  88 S13         N/A
GRANBURY         N/A     70  66  88 SE12G24     N/A
COMANCHE         N/A     68  63  83 SE12        N/A
HAMBY            N/A     66  61  82 S13         N/A
IVIE RESERVOIR   N/A     66  63  88 E7          N/A
COLORADO BEND    N/A     70  66  88 S7G16       N/A
$$

SUPPLEMENTAL OBSERVATIONS (EAST)

CITY           SKY/WX    TMP DP  RH WIND       PRES   REMARKS
LUFKIN           N/A     70  66  88 MISG        N/A
N SABINE NF      N/A     66  63  88 MISG        N/A
$$

SUPPLEMENTAL OBSERVATIONS ARE A COLLECTION OF AUTOMATED INSTRUMENTS
THAT ARE MAINTAINED BY A VARIETY OF FEDERAL AND STATE AGENCIES.
CERTAIN ELEMENTS...SUCH AS HUMIDITY VALUES AND SUSTAINED WIND
SPEEDS...MAY BE APPROXIMATED.




USA.gov is the U.S. government's official web portal to all federal, state and local government web resources and services.